STARLINK-2705, 48672

Orbit data source: Space-Track

STARLINK-2705, 48672 is a payload satellite owned by SpaceX/Seattle (US) in LEO that was launched on Wed, 26 May 2021 UTC via an FALCON 9 launch vehicle from the Air Force Eastern Test Range (AFETR). Payload-class satellites include a variety of spacecraft equipped with specific instruments for various scientific and technological missions. These include communications satellites like Starlink; space stations such as the ISS; scientific satellites like the Hubble; Earth observation satellites from companies like Planet Labs, Umbra, and HawkEye 360; GPS; miniature CubeSats for education and research; and military/defense satellites.

Loading next visibility...
Identifier
48672, 2021-044AL
Orbit
LEO
Country
Flag of USUS
Related business
Manufacturer
SpaceX/Seattle
Mission
Operational Commercial Communications
Bus & Motor
STARLINK, Unknown motor
Mass
260 kg wet, ~248 kg dry
Launch date (UTC)
2021-05-26 (5 years ago)
Launch vehicle
FALCON 9
Launch site
Air Force Eastern Test Range (AFETR)
Object type
Payload
Rocket body
Debris
Shape & HBR
Box + 1 Pan, 10.1 m
Radar Cross Section
13.562 m², Large (>1 m²)

Expand to show TLE details & history
Last TLE update: 19 hours ago

TLE from 19 hours ago
0 STARLINK-2705
1 48672U 21044AL  25349.36099248  .00000813  00000-0  73484-4 0  9994
2 48672  53.0559 130.1835 0001239  91.5589 268.5542 15.06389180251134
Epoch: 2025-12-15T08:39Z
TLE epoch observation values (Epoch: 2025-12-15T08:39:49.750Z)
Latitude
-0.00001°
Longitude
-84.03446°
Altitude
548.146 km
Speed
7.589 km/s
True Right ascension
08h 40m 44s
True Declination
0° 00' 00"
Sunlit
Object was in full shadow at epoch
Visualization orbit readout
Latitude
Unknown
Longitude
Unknown
Altitude
Unknown
Speed
Unknown
Apparent Right ascension
Unknown
Apparent Declination
Unknown
Sunlit
N/A
Visualization observer readout
Local Sidereal Time
02:35:35
Azimuth
Unknown
Elevation
Unknown
Doppler factor
Unknown
Orbital elements
Apogee altitude
548.373 km
Perigee altitude
546.657 km
Semi-major axis
6,925.652 km
Eccentricity
0.00012
Inclination
53.0559°
RAAN
130.1835°
Arg. of periapsis
91.5589°
True anomaly
268.54001°
Mean anomaly
268.5542°
Eccentric anomaly
268.5471°
Mean motion
3.76576 °/min
Orbital period
95.6 mins
BSTAR
0.000073484
Loading maneuver chart data...
Computing Atmospheric mass density...
Loading historical data...
Loading historical data...
Loading historical data...
Loading historical data...
Loading historical data...
Loading historical data...
Loading historical data...

Documentation

Showing up to 5 results
|